[[{"header":{"parameterUnit":"m.s-1","parameterCategory":1,"la1":30.2991,"la2":30.254,"lo1":-89.0895,"lo2":-89.0444,"dy":0.0017,"dx":0.0017,"nx":28,"ny":28,"refTime":"2023-10-17T21:00:00:Z","depth":0,"parameterNumber":2,"parameterNumberName":"U-component_of_WINDS"},"data":[0,0,0,0,0,0,0,0,0,0,0,0,0,0,0,0,0,0,0,0,0,0,0,0,0,0,0,0,0,0,0,0,0,0,0,0,0,0,0,0,0,0,0,0,0,0,0,0,0,0,0,0,0,0,0,0,0,0,1.4253,1.4252,0,1.4183,1.4182,1.4182,1.411,1.411,1.4109,1.4108,1.4038,1.4037,1.4036,0,0,0,0,0,0,0,0,0,0,0,0,0,1.4324,1.4323,1.4253,1.4252,1.4251,1.4183,1.4182,1.4181,1.4111,1.4109,1.4108,1.4107,1.4038,1.4037,1.4036,0,0,0,0,0,0,0,0,0,0,0,0,0,1.4277,1.4322,1.4253,1.4207,1.4203,1.4183,1.4182,1.4181,1.4111,1.4109,1.4108,1.4107,1.4038,1.4037,1.4036,1.4056,0,0,1.4031,1.4031,0,0,0,0,0,0,0,0,1.428,1.4275,1.4215,1.4211,1.4205,1.4154,1.4181,1.4139,1.4111,1.4146,1.4108,1.4106,1.4078,1.4073,1.4063,1.4053,1.405,1.4031,1.403,1.403,1.4029,0,0,0,0,0,0,0,1.4283,1.4277,1.4225,1.4214,1.4208,1.419,1.4182,1.4173,1.4121,1.4143,1.4137,1.413,1.4075,1.4065,1.4061,1.4049,1.4031,1.403,1.4029,1.4028,1.4047,1.4048,0,0,0,0,0,0,1.4293,1.4281,1.4227,1.4223,1.424,1.419,1.4181,1.4172,1.4121,1.4111,1.4131,1.4127,1.4068,1.4063,1.4058,1.4075,1.403,1.4028,1.4027,1.4046,1.4047,1.4049,0,0,0,0,0,0,1.4295,1.4289,1.423,1.425,1.4241,1.4191,1.4181,1.4171,1.4161,1.4112,1.4102,1.4131,1.4066,1.406,1.4056,1.4072,1.4028,1.4026,1.4044,1.4046,1.4048,1.4112,0,0,0,0,0,0,1.4298,1.429,1.4298,1.4251,1.4241,1.4229,1.4182,1.4171,1.4159,1.4152,1.4109,1.41,1.4065,1.4058,1.4055,1.4069,1.4025,1.4042,1.4045,1.4047,1.4108,1.4116,1.4122,0,0,0,0,0,1.43,1.432,1.4299,1.4293,1.4249,1.4231,1.4225,1.4183,1.416,1.4167,1.4135,1.4102,1.4071,1.4059,1.4054,1.4068,1.4041,1.4044,1.4047,1.4105,1.4114,1.4122,0,0,0,0,0,0,1.4371,1.4313,1.4289,1.4294,1.4267,1.4219,1.4226,1.4195,1.4175,1.417,1.412,1.411,1.4111,1.409,1.4076,1.4083,1.4051,1.4054,1.4097,1.4105,1.4112,1.4116,1.4024,0,0,0,0,0,1.4387,1.4377,1.4327,1.4336,1.4324,1.4277,1.4268,1.4238,1.4209,1.4197,1.4165,1.4139,1.4122,1.4113,1.4096,1.4105,1.4093,1.4112,1.412,1.4126,1.4127,1.4127,1.4134,1.4059,1.4059,1.4059,0,0,1.442,1.4387,1.4384,1.4349,1.4325,1.4315,1.4268,1.4261,1.4252,1.4196,1.4189,1.4165,1.4132,1.4133,1.4132,1.4115,1.4146,1.413,1.4135,1.4133,1.4131,1.4138,1.4144,1.4061,1.406,1.406,0,0,1.4473,1.4449,1.4452,1.4429,1.4393,1.4361,1.4362,1.4318,1.4299,1.4291,1.4248,1.4237,1.4212,1.4189,1.4174,1.4217,1.4185,1.4213,1.425,1.425,1.4256,1.4261,1.4273,1.4279,1.4216,1.4216,1.4216,0,1.4519,1.4502,1.4458,1.4451,1.4436,1.4385,1.4386,1.4366,1.4327,1.4317,1.4299,1.4263,1.4238,1.4231,1.4241,1.4232,1.423,1.4217,1.4259,1.4263,1.4267,1.4278,1.4283,1.4219,1.4219,1.4218,1.4218,0,1.4558,1.4547,1.4553,1.4515,1.4501,1.4499,1.4453,1.4445,1.4416,1.4386,1.4377,1.4345,1.4318,1.4315,1.4288,1.4304,1.4294,1.4268,1.4235,1.4278,1.4288,1.4292,1.4224,1.4223,1.4222,1.4221,0,0,1.4653,1.4589,1.4592,1.4573,1.4529,1.4519,1.4514,1.4488,1.448,1.4455,1.4447,1.4426,1.44,1.4384,1.4353,1.4354,1.4386,1.4327,1.4325,1.4336,1.4398,1.4416,1.4421,1.4365,1.4366,1.4366,1.44,0,1.4697,1.4684,1.4643,1.4643,1.463,1.4581,1.4576,1.4548,1.452,1.4505,1.4474,1.4458,1.4428,1.4417,1.4415,1.4382,1.4397,1.438,1.4356,1.4356,1.4363,1.4427,1.4446,1.4479,1.4403,1.4404,1.4404,0,1.4747,1.4723,1.472,1.4674,1.4667,1.4664,1.4635,1.4622,1.4589,1.4568,1.4548,1.4513,1.4504,1.4475,1.4459,1.4449,1.4437,1.4419,1.4419,1.4413,1.4381,1.442,1.4489,1.4493,1.441,1.441,1.441,0,1.4812,1.478,1.4773,1.4759,1.4706,1.4704,1.4682,1.4647,1.4633,1.4608,1.4598,1.4573,1.4558,1.4539,1.4497,1.4481,1.4486,1.4454,1.4467,1.4468,1.4468,1.4468,1.4534,1.4466,1.4466,1.4465,1.4465,0,1.4864,1.4864,1.4802,1.4798,1.4795,1.4748,1.4747,1.472,1.4689,1.4678,1.4635,1.4625,1.4573,1.4557,1.4525,1.4515,1.451,1.4492,1.4483,1.4494,1.4496,1.4484,1.4479,1.4467,1.4466,1.4466,1.4466,0,1.4936,1.4895,1.4884,1.4834,1.4822,1.4822,1.4779,1.4772,1.4742,1.4728,1.4722,1.4673,1.4652,1.4609,1.4577,1.4555,1.4552,1.4538,1.4563,1.4557,1.457,1.4569,1.4628,1.4632,1.4565,1.4565,1.4566,0,1.497,1.4968,1.4918,1.4907,1.4886,1.487,1.4855,1.4808,1.4794,1.4755,1.4752,1.4728,1.4705,1.4673,1.4634,1.4608,1.4592,1.4614,1.4587,1.4598,1.4588,1.4587,1.4586,1.4619,1.462,1.4621,1.4622,0,1.5034,1.5013,1.4993,1.4965,1.4948,1.4924,1.4897,1.4891,1.4838,1.4824,1.4801,1.4784,1.4749,1.4724,1.4692,1.4669,1.4636,1.4631,1.4632,1.4642,1.4655,1.4645,1.4576,1.4629,1.4628,1.4628,1.4628,1.4627,1.5086,1.5081,1.5044,1.5022,1.4997,1.4973,1.4963,1.4931,1.4911,1.4879,1.4853,1.4831,1.4796,1.4749,1.4728,1.4709,1.4694,1.4696,1.4696,1.4697,1.47,1.466,1.4704,1.4704,1.4703,1.4703,1.4703,0,1.5145,1.5118,1.5099,1.5062,1.5045,1.5016,1.4985,1.4971,1.4953,1.4923,1.4901,1.4873,1.4848,1.4807,1.4779,1.4772,1.4756,1.4765,1.4764,1.4758,1.4717,1.4718,1.4779,1.4779,1.4779,1.4779,1.4779,1.4778,1.5173,1.5162,1.5137,1.5112,1.5086,1.5064,1.5048,1.5025,1.5,1.4971,1.495,1.4923,1.4888,1.4856,1.4831,1.482,1.481,1.4824,1.4807,1.4769,1.4762,1.4755,1.4755,1.4823,1.4823,1.4849,1.485,1.485]},{"header":{"parameterUnit":"m.s-1","parameterCategory":1,"la1":30.2991,"la2":30.254,"lo1":-89.0895,"lo2":-89.0444,"dy":0.0017,"dx":0.0017,"nx":28,"ny":28,"refTime":"2023-10-17T21:00:00:Z","depth":0,"parameterNumber":3,"parameterNumberName":"V-component_of_WINDS"},"data":[0,0,0,0,0,0,0,0,0,0,0,0,0,0,0,0,0,0,0,0,0,0,0,0,0,0,0,0,0,0,0,0,0,0,0,0,0,0,0,0,0,0,0,0,0,0,0,0,0,0,0,0,0,0,0,0,0,0,2.5037,2.5039,0,2.5154,2.5155,2.5156,2.5153,2.5151,2.515,2.5148,2.5265,2.5269,2.5274,0,0,0,0,0,0,0,0,0,0,0,0,0,2.4807,2.4811,2.5037,2.5039,2.504,2.5154,2.5155,2.5157,2.5153,2.5151,2.5149,2.5148,2.5263,2.5269,2.5274,0,0,0,0,0,0,0,0,0,0,0,0,0,2.4913,2.4812,2.5037,2.5052,2.5055,2.5153,2.5155,2.5157,2.5154,2.5151,2.5149,2.5147,2.5262,2.5268,2.5275,2.5365,0,0,2.5296,2.5299,0,0,0,0,0,0,0,0,2.4907,2.4922,2.5048,2.5051,2.5054,2.5136,2.5117,2.5227,2.5154,2.5116,2.5148,2.5145,2.5224,2.5234,2.5261,2.5371,2.5376,2.5297,2.5301,2.5304,2.5306,0,0,0,0,0,0,0,2.49,2.4917,2.5083,2.505,2.5054,2.5051,2.5064,2.5138,2.5182,2.5119,2.5119,2.5133,2.5225,2.5254,2.5263,2.5378,2.5297,2.5303,2.5307,2.531,2.5564,2.5566,0,0,0,0,0,0,2.489,2.4911,2.508,2.5087,2.4973,2.5058,2.5072,2.5112,2.5181,2.5189,2.5135,2.5133,2.5244,2.5255,2.5268,2.5376,2.5304,2.531,2.5314,2.5561,2.5564,2.5567,0,0,0,0,0,0,2.4885,2.4905,2.5075,2.4999,2.502,2.5064,2.511,2.5116,2.5145,2.5193,2.5201,2.5157,2.5242,2.5258,2.5341,2.538,2.5313,2.532,2.5558,2.5562,2.5566,2.5594,0,0,0,0,0,0,2.4878,2.4903,2.4939,2.5,2.5024,2.5148,2.5113,2.512,2.5157,2.5155,2.5216,2.5223,2.5241,2.533,2.5347,2.5388,2.5325,2.5555,2.556,2.5565,2.559,2.5598,2.5606,0,0,0,0,0,2.487,2.4943,2.4941,2.4962,2.5071,2.515,2.5164,2.5184,2.5161,2.5196,2.5226,2.5222,2.5373,2.5339,2.5358,2.5401,2.5552,2.5559,2.5564,2.5586,2.5597,2.5605,0,0,0,0,0,0,2.4886,2.4951,2.495,2.5045,2.5092,2.5149,2.5195,2.5195,2.5249,2.5245,2.5266,2.528,2.5362,2.539,2.5351,2.549,2.5459,2.5469,2.5469,2.548,2.5488,2.5479,2.5331,0,0,0,0,0,2.4901,2.4961,2.5014,2.5092,2.5116,2.5151,2.5187,2.5198,2.5247,2.5267,2.5303,2.535,2.5407,2.5445,2.5501,2.5594,2.5605,2.5632,2.564,2.5647,2.5655,2.5703,2.5715,2.5587,2.5587,2.5587,0,0,2.4931,2.4974,2.5011,2.5096,2.5134,2.5194,2.5168,2.5233,2.5277,2.5276,2.5356,2.5384,2.5438,2.5525,2.5565,2.5551,2.5693,2.5654,2.5659,2.5664,2.571,2.5722,2.5733,2.5591,2.559,2.5589,0,0,2.5018,2.5057,2.5125,2.5163,2.5221,2.5243,2.5259,2.5316,2.5335,2.5416,2.5415,2.5467,2.5567,2.5604,2.5636,2.5733,2.5729,2.575,2.5792,2.5838,2.5848,2.5857,2.589,2.5901,2.5758,2.5758,2.5759,0,2.5049,2.514,2.516,2.5225,2.5262,2.5263,2.5331,2.5366,2.5439,2.5463,2.5446,2.5569,2.5606,2.57,2.5723,2.575,2.5767,2.5744,2.5845,2.5855,2.5863,2.5894,2.5907,2.5761,2.576,2.576,2.576,0,2.5174,2.5237,2.5285,2.5354,2.5396,2.5462,2.549,2.553,2.5536,2.556,2.564,2.5683,2.5747,2.577,2.5778,2.5865,2.5854,2.5841,2.581,2.5877,2.5906,2.5919,2.5763,2.5763,2.5762,2.5762,0,0,2.5275,2.5353,2.537,2.54,2.5462,2.551,2.5575,2.5637,2.5669,2.5719,2.5772,2.5855,2.5842,2.5879,2.589,2.5931,2.6001,2.5913,2.5914,2.5926,2.6097,2.6105,2.6119,2.5999,2.6002,2.6004,2.6091,0,2.5366,2.5482,2.5501,2.5602,2.5659,2.5659,2.5715,2.5758,2.5781,2.5831,2.5856,2.5914,2.5895,2.5916,2.5956,2.5984,2.6036,2.5978,2.6047,2.6049,2.6033,2.6134,2.6144,2.6225,2.6103,2.6105,2.6107,0,2.5489,2.5541,2.5647,2.5698,2.5723,2.5773,2.583,2.5879,2.5926,2.5939,2.5979,2.5984,2.6049,2.6015,2.6103,2.6063,2.6092,2.611,2.6113,2.612,2.6082,2.6142,2.6252,2.6263,2.6126,2.6124,2.6123,0,2.5549,2.5646,2.5721,2.5747,2.5809,2.5844,2.5871,2.5916,2.5951,2.6001,2.6023,2.6079,2.611,2.6152,2.6171,2.6145,2.6257,2.6226,2.6268,2.6268,2.6291,2.6289,2.6406,2.6312,2.6312,2.6312,2.6312,0,2.5649,2.5713,2.5749,2.5795,2.5866,2.5886,2.5955,2.5981,2.6021,2.6071,2.6075,2.6121,2.6145,2.6194,2.621,2.6278,2.6293,2.6304,2.6307,2.6303,2.6301,2.6322,2.6316,2.6315,2.6314,2.6314,2.6313,0,2.5729,2.5755,2.5837,2.5888,2.5903,2.5953,2.5996,2.604,2.6061,2.6124,2.614,2.6174,2.6232,2.6256,2.6327,2.6337,2.6415,2.6415,2.64,2.64,2.6441,2.6436,2.6574,2.6592,2.6487,2.6488,2.6489,0,2.579,2.5839,2.5896,2.5929,2.5958,2.6012,2.6048,2.6068,2.6104,2.616,2.6196,2.6254,2.6302,2.6393,2.6424,2.6477,2.6477,2.6521,2.6485,2.6478,2.6475,2.6472,2.6476,2.6528,2.6529,2.653,2.653,0,2.5895,2.5905,2.5956,2.6012,2.6054,2.6098,2.6142,2.6169,2.6195,2.6235,2.6295,2.6331,2.6403,2.6459,2.6514,2.654,2.6539,2.6541,2.6554,2.655,2.6538,2.6543,2.6416,2.6538,2.6537,2.6537,2.6536,2.6536,2.5966,2.6009,2.6055,2.6111,2.6145,2.6185,2.6228,2.6254,2.6304,2.6364,2.6373,2.6435,2.6478,2.6552,2.658,2.6628,2.6616,2.6635,2.6639,2.6643,2.6645,2.6531,2.6638,2.6638,2.6638,2.6637,2.6637,0,2.607,2.6099,2.615,2.621,2.6253,2.6249,2.6296,2.6332,2.6387,2.6428,2.6474,2.654,2.6594,2.6627,2.6681,2.6713,2.6713,2.6726,2.6724,2.6729,2.6653,2.6636,2.6725,2.6725,2.6725,2.6725,2.6725,2.6725,2.6129,2.62,2.6215,2.6302,2.633,2.6392,2.6419,2.6454,2.6486,2.656,2.6605,2.6627,2.6664,2.672,2.6768,2.6776,2.6795,2.6809,2.6816,2.6744,2.6735,2.6726,2.671,2.6813,2.6813,2.6887,2.6888,2.6889]}]]